Regional Weather Roundup
Issued by NWS Sterling, VA

Home | Current Version | Previous Version | Graphics & Text | Print | Product List | Glossary On
Versions: 1 2 3 4 5 6 7 8 9 10 11 12 13 14 15 16 17 18 19 20 21 22 23 24 25 26 27 28 29 30 31 32 33 34 35 36 37 38 39 40 41 42 43 44 45 46 47 48 49 50
000
ASUS41 KLWX 190210
RWRLWX

REGIONAL WEATHER ROUNDUP
NATIONAL WEATHER SERVICE BALTIMORE MD/WASHINGTON DC
900 PM EST SAT NOV 18 2017

Note: "FAIR" indicates few or no clouds below 12,000 feet
with no significant weather and/or obstructions to visibility.
 TC=TEMPERATURE CELSIUS

 * =Non NWS site. Station does not report precipitation (e.g. rain,
    snow, etc.), thunder, or fog.

DCZ001-MDZ009-015-VAZ040>042-051-053>054-190300-
WASHINGTON METRO

CITY           SKY/WX    TMP DP  RH WIND       PRES   REMARKS
WASHINGTON NAT CLOUDY    61  48  62 S15G23    29.50F
DULLES         CLOUDY    61  46  57 S22G37    29.46F
ANDREWS AFB    CLOUDY    60  46  61 S21G29    29.51F
FT BELVOIR     CLOUDY    61  47  59 S10G22    29.52F
COLLEGE PARK*  CLOUDY    60  45  57 S6        29.50F
LEESBURG*      MOCLDY    61  50  67 S21G31    29.45F
MANASSAS*      CLOUDY    63  47  55 S23G37    29.47F
GAITHERSBURG*  CLOUDY    59  45  59 S14G28    29.47F

$$

MDZ006>007-011-014-190300-
BALTIMORE METRO

CITY           SKY/WX    TMP DP  RH WIND       PRES   REMARKS
BWI AIRPORT    CLOUDY    60  46  59 S10G20    29.49F
MD SCIENCE CTR   N/A     61  45  55 MISG      29.49F
MARTIN STATE   CLOUDY    57  48  72 S9        29.51F
FORT MEADE*    CLOUDY    59  45  58 S9G16     29.52F

$$

MDZ012-015-019>023-190300-
MARYLAND EASTERN SHORE

CITY           SKY/WX    TMP DP  RH WIND       PRES   REMARKS
OCEAN CITY     MOCLDY    59  51  75 SW20G37   29.62F
SALISBURY      CLOUDY    61  52  72 S17G23    29.60F
CAMBRIDGE*     CLEAR     59  50  72 S14G23    29.58S
EASTON*        PTCLDY    61  48  63 S17       29.60S

$$

MDZ017>025-190300-
SOUTHERN MARYLAND

CITY           SKY/WX    TMP DP  RH WIND       PRES   REMARKS
PATUXENT RIVER NOT AVBL
ST INIGOES     CLOUDY    63  51  65 S17G30    29.58F
LEONARDTOWN*   CLOUDY    61  50  67 SW14G22   29.58F

$$

MDZ003>005-190300-
NORTH CENTRAL MARYLAND

CITY           SKY/WX    TMP DP  RH WIND       PRES   REMARKS
FREDERICK*     NOT AVBL
HAGERSTOWN APT MOCLDY    41  39  93 W5        29.41F FOG
WESTMINSTER*   CLOUDY    55  45  67 S13G20    29.45F

$$

MDZ501>502-190300-
WESTERN MARYLAND

CITY           SKY/WX    TMP DP  RH WIND       PRES   REMARKS
OAKLAND*       CLOUDY    55  48  76 SW16G31   29.31F
CUMBERLAND*    CLOUDY    39  39 100 CALM      29.44F

$$

VAZ025>031-190300-
SHENANDOAH VALLEY

CITY           SKY/WX    TMP DP  RH WIND       PRES   REMARKS
WINCHESTER*    MOCLDY    59  45  58 SW17G23   29.42F
FRONT ROYAL*   MOCLDY    59  45  58 SW10G20   29.43F
LURAY*         MOCLDY    59  46  63 SW7       29.45F
NEW MARKET*    MOCLDY    58  45  60 S18G26    29.44F
STAUNTON*      CLOUDY    56  45  66 S6        29.50F
WAYNESBORO*    CLOUDY    57  47  68 S13G18    29.50F

$$

WVZ021-048>050-054>055-190300-
EASTERN WEST VIRGINIA PANHANDLE

CITY           SKY/WX    TMP DP  RH WIND       PRES   REMARKS
MARTINSBURG    CLOUDY    40  39  97 S3        29.40F FOG
PETERSBURG*    DRIZZLE   40  37  86 CALM      29.39F

$$

VAZ036>039-050-190300-
CENTRAL FOOTHILLS

CITY           SKY/WX    TMP DP  RH WIND       PRES   REMARKS
CHARLOTTESVILL CLOUDY    61  47  59 S21G26    29.51F
CULPEPER*      CLOUDY    63  45  51 S17G28    29.51F
ORANGE*        CLOUDY    61  45  55 S17G23    29.52F
GORDONSVILLE*  MOCLDY    61  47  60 S21G36    29.51F
WARRENTON*     NOT AVBL

$$

VAZ055>057-190300-
NORTH AND CENTRAL PIEDMONT

CITY           SKY/WX    TMP DP  RH WIND       PRES   REMARKS
FREDERICKSBRG* CLOUDY    62  50  63 S14G23    29.55S
STAFFORD*      CLOUDY    61  47  59 SW8G20    29.58F

$$

NCZ024-NYZ072-PAZ021-071-VAZ022-071-190300-
OTHER REGIONAL OBSERVATIONS

CITY           SKY/WX    TMP DP  RH WIND       PRES   REMARKS
NEW YORK CITY  CLOUDY    51  44  77 VRB5      29.55
PHILADELPHIA   CLOUDY    55  44  66 S9        29.51F
PITTSBURGH     LGT RAIN  55  54  96 SE6       29.24F FOG
ROANOKE        CLOUDY    61  49  64 S8G17     29.57F
RICHMOND       CLOUDY    62  51  67 S16       29.61S
RALEIGH        CLOUDY    63  52  67 SW15G23   29.69F

$$

ANZ530>537-190300-
MARINE OBSERVATIONS

STATION/POSITION TIME  TEMP    WIND        PRES
                       AIR SEA DIR/SP/G
                 (UTC) (F)     (DEG/KT/KT) (MB)
THOMAS PT LIGHT  0200   59 54  190/ 21/ 23   N/A

$$




USA.gov is the U.S. government's official web portal to all federal, state and local government web resources and services.